This demonstration page uses our WeatherBlox Daily Observations layout. Learn more.

Left ArrowRight Arrow

Hourly Observations for October 10, 2020

Temp ( °F °C ) Dew Point ( °F °C ) Humidity (%) Winds ( mph kmh ) Pressure ( in mb ) Visibility ( mi km ) Precip ( " mm )
12:54 am 00:54 Clear 60 15.6 54 12.2 80 80 Calm 29.79 1009 10 16.0934 0 0
1:54 am 01:54 Clear 60 15.6 56 13.3 86 86 Calm 29.8 1009 9 14.48406 0 0
2:54 am 02:54 Clear 61 16.1 55 12.8 81 81 Calm 29.8 1009 9 14.48406 0 0
3:54 am 03:54 Clear 55 12.8 51 10.6 87 87 NW 3 6 29.79 1009 9 14.48406 0 0
4:54 am 04:54 Clear 51 10.6 48 8.9 89 89 N 5 7 29.82 1010 7 11.26538 0 0
5:54 am 05:54 Clear 51 10.6 47 8.3 86 86 N 3 6 29.84 1011 9 14.48406 0 0
6:54 am 06:54 Clear 55 12.8 48 8.9 77 77 N 13 20 29.87 1011 10 16.0934 0 0
7:54 am 07:54 Sunny 54 12.2 47 8.3 77 77 N 14 22 29.89 1012 10 16.0934 0 0
8:54 am 08:54 Sunny 59 15 47 8.3 64 64 NNE 10 17 29.91 1013 10 16.0934 0 0
9:54 am 09:54 Sunny 65 18.3 46 7.8 51 51 NE 12 19 29.93 1014 10 16.0934 0 0
10:54 am 10:54 Sunny 69 20.6 47 8.3 45 45 NE 14 22 29.94 1014 10 16.0934 0 0
11:54 am 11:54 Sunny 73 22.8 48 8.9 41 41 NE 12 19 29.94 1014 10 16.0934 0 0
12:54 pm 12:54 Sunny 77 25 48 8.9 36 36 NE 15 24 29.91 1013 10 16.0934 0 0
1:54 pm 13:54 Sunny 78 25.6 48 8.9 35 35 ENE 13 20 29.89 1012 10 16.0934 0 0
2:54 pm 14:54 Sunny 81 27.2 48 8.9 32 32 E 13 20 29.87 1011 10 16.0934 0 0
3:54 pm 15:54 Sunny 81 27.2 47 8.3 30 30 ENE 13 20 29.85 1011 10 16.0934 0 0
4:54 pm 16:54 Sunny 81 27.2 47 8.3 30 30 ENE 9 15 29.85 1011 10 16.0934 0 0
5:54 pm 17:54 Sunny 79 26.1 47 8.3 32 32 ENE 8 13 29.85 1011 10 16.0934 0 0
6:54 pm 18:54 Clear 71 21.7 47 8.3 42 42 ENE 8 13 29.85 1011 10 16.0934 0 0
7:54 pm 19:54 Clear 69 20.6 47 8.3 45 45 E 8 13 29.85 1011 10 16.0934 0 0
8:54 pm 20:54 Clear 67 19.4 47 8.3 49 49 Calm 29.84 1010 10 16.0934 0 0
9:54 pm 21:54 Clear 65 18.3 47 8.3 52 52 Calm 29.84 1011 10 16.0934 0 0
10:54 pm 22:54 Clear 64 17.8 48 8.9 56 56 Calm 29.83 1010 10 16.0934 0 0
11:54 pm 23:54 Clear 68 20 54 12.2 61 61 SE 10 17 29.81 1010 10 16.0934 0 0

Powered by AerisWeather